Regional Weather Roundup
Issued by NWS Cleveland, OH

Home | Current Version | Previous Version | Text Only | Print | Product List | Glossary Off
Versions: 1 2 3 4 5 6 7 8 9 10 11 12 13 14 15 16 17 18 19 20 21 22 23 24 25 26 27 28 29 30 31 32 33 34 35 36 37 38 39 40 41 42 43 44 45 46 47 48 49 50

000
ASUS41 KCLE 161010
RWRCLE
OHIO REGIONAL WEATHER ROUNDUP
NATIONAL WEATHER SERVICE CLEVELAND, OH
600 AM EDT WED AUG 16 2017

NOTE: "FAIR" INDICATES FEW OR NO CLOUDS BELOW 12,000 FEET WITH NO
SIGNIFICANT WEATHER AND/OR OBSTRUCTIONS TO VISIBILITY.

OHZ001>008-015>018-024>027-034-035-043-044-161100-
   NORTHWEST OHIO

CITY           SKY/WX    TMP DP  RH WIND       PRES   REMARKS
DEFIANCE       CLEAR     64  62  93 CALM      30.02R
FINDLAY        CLEAR     67  61  81 E6        30.01S
TOLEDO EXPRESS CLEAR     64  64 100 CALM      30.02S FOG
TOLEDO EXEC    CLEAR     66  65  96 E3        30.04R FOG
LIMA           CLEAR     67  66  97 SE7       30.02R
$$

OHZ009>014-019>023-028>033-038-089-161100-
   NORTHEAST OHIO

CITY           SKY/WX    TMP DP  RH WIND       PRES   REMARKS
CLE-HOPKINS    PTCLDY    63  60  90 CALM      30.05R FOG
CLE-LAKEFRONT  PTCLDY    69  61  75 SE3       30.03R
CUY CO. ARPT   NOT AVBL
LORAIN-ELYRIA  FOG       59  55  87 SW3       30.05R VSB 1/4
ASHTABULA      CLEAR     55  55 100 E3        30.05S FOG
AKRON-CANTON   CLEAR     64  61  90 CALM      30.05R FOG
WOOSTER        CLEAR     57  57 100 CALM      30.06R FOG
MANSFIELD      CLEAR     64  62  93 E5        30.05R
YOUNGSTOWN     MOCLDY    59  58  96 CALM      30.05R
$$

OHZ042-051>053-060>062-070>072-077>081-161100-
  SOUTHWEST OHIO

CITY           SKY/WX    TMP DP  RH WIND       PRES   REMARKS
CINC-COVINGTON PTCLDY    70  69  97 CALM      30.02R
CINC-LUNKEN    PTCLDY    66  66 100 CALM      30.01S FOG
HAMILTON       PTCLDY    65  65 100 CALM      30.02S FOG
DAYTON         MOCLDY    69  66  90 CALM      30.03R
WRIGHT-PAT AFB CLEAR     67  67 100 CALM      30.02R
DAYTON GENERAL PTCLDY    68  66  93 S3        30.02R
WILMINGTON     CLEAR     66  66 100 CALM      30.02R FOG
$$

OHZ036-037-039>041-045>050-054>059-063>069-073>076-082>088-161100-
  CENTRAL AND SOUTHEAST OHIO

CITY           SKY/WX    TMP DP  RH WIND       PRES   REMARKS
COLUMBUS       PTCLDY    71  69  93 CALM      30.01R
OSU AIRPORT    PTCLDY    68  68 100 CALM      30.02R
BOLTON FIELD   MOCLDY    68  68 100 SE3       30.03R
RICKENBACK AFB PTCLDY    69  67  94 NE6       30.01S
NEWARK         CLOUDY    70  67  90 NE3       30.02R
MARION         PTCLDY    62  59  90 E3        30.03R FOG
LANCASTER      CLOUDY    65  65 100 CALM      30.03R FOG
ZANESVILLE     MOCLDY    68  65  90 CALM      30.03R
NEW PHILLY     NOT AVBL
$$




USA.gov is the U.S. government's official web portal to all federal, state and local government web resources and services.